EDT,Max TemperatureF,Mean TemperatureF,Min TemperatureF,Max Dew PointF,MeanDew PointF,Min DewpointF,Max Humidity, Mean Humidity, Min Humidity, Max Sea Level PressureIn, Mean Sea Level PressureIn, Min Sea Level PressureIn, Max VisibilityMiles, Mean VisibilityMiles, Min VisibilityMiles, Max Wind SpeedMPH, Mean Wind SpeedMPH, Max Gust SpeedMPH,PrecipitationIn, CloudCover, Events, WindDirDegrees
2013-10-1,75,68,60,61,60,58,97,79,61,30.07,30.02,29.98,10,7,3,15,6,20,0.00,5,,218
2013-10-2,79,71,62,66,63,59,100,79,58,30.12,30.07,30.02,10,5,0,10,3,15,T,4,Fog,230
2013-10-3,81,73,65,66,64,61,93,72,51,30.07,30.02,29.95,10,7,4,17,7,22,0.00,4,,203
2013-10-4,82,75,67,68,65,64,93,74,55,30.04,30.01,29.99,10,10,6,14,7,18,T,2,,204
2013-10-5,77,72,66,70,67,63,100,90,79,30.05,29.97,29.87,10,8,2,15,8,23,0.47,6,Rain,197
2013-10-6,67,57,47,64,57,39,100,83,66,29.86,29.78,29.73,10,7,1,20,9,29,1.28,7,Rain,228
2013-10-7,59,52,45,45,43,38,93,75,57,30.15,29.94,29.81,10,10,4,18,7,26,0.03,4,Rain,255
2013-10-8,70,56,42,48,44,42,93,65,37,30.27,30.22,30.16,10,10,9,12,4,14,0.00,0,,157
2013-10-9,73,57,41,47,44,39,93,64,35,30.26,30.20,30.16,10,10,8,10,2,16,0.00,0,,118
2013-10-10,73,58,42,48,43,40,92,63,34,30.20,30.15,30.08,10,10,10,7,1,10,0.00,0,,141
2013-10-11,79,62,44,51,46,42,93,63,32,30.12,30.06,30.01,10,10,6,7,1,12,0.00,0,,107
2013-10-12,79,63,47,56,51,45,93,63,32,30.10,30.06,30.02,10,10,8,12,3,15,0.00,1,,221
2013-10-13,71,58,44,59,46,36,89,59,28,30.35,30.25,30.11,10,8,5,15,7,17,T,2,,349
2013-10-14,69,54,38,48,42,37,93,65,37,30.37,30.30,30.21,10,10,10,14,5,17,0.00,0,,78
2013-10-15,68,58,47,61,55,45,93,83,73,30.18,30.00,29.91,10,8,2,16,7,23,0.08,4,Rain,179
2013-10-16,64,54,44,61,51,40,93,72,51,29.97,29.91,29.86,10,9,6,16,8,24,T,5,,268
2013-10-17,51,46,41,46,42,38,93,84,74,29.96,29.91,29.87,10,9,4,16,6,23,0.12,5,Rain,244
2013-10-18,65,53,40,45,41,39,89,65,40,29.99,29.95,29.89,10,10,8,23,9,24,0.00,1,,240
2013-10-19,52,47,41,41,38,33,96,73,50,29.95,29.90,29.86,10,8,3,17,6,23,0.28,6,Rain,273
2013-10-20,63,53,42,40,37,34,76,58,39,29.98,29.94,29.91,10,10,10,20,11,29,0.00,2,,214
2013-10-21,60,49,37,46,41,29,86,72,57,29.98,29.93,29.88,10,9,2,20,11,26,T,3,Rain,249
2013-10-22,50,41,31,36,29,24,92,66,39,30.03,29.96,29.87,10,9,6,14,7,24,0.09,4,Rain,297
2013-10-23,46,39,32,37,32,28,100,77,53,30.04,29.91,29.82,10,6,1,20,8,20,0.26,8,Rain-Snow,314
2013-10-24,43,37,31,32,29,24,82,68,53,30.28,30.13,30.03,10,10,10,16,8,20,0.00,7,,280
2013-10-25,48,38,28,28,24,23,85,62,38,30.43,30.34,30.24,10,10,10,16,8,22,0.00,0,,251
2013-10-26,51,43,34,36,29,24,82,66,50,30.22,30.03,29.91,10,10,10,23,11,33,0.00,4,,237
2013-10-27,54,42,29,33,31,29,92,67,41,30.11,30.07,30.04,10,10,10,13,3,18,0.00,0,,228
2013-10-28,61,46,30,36,30,27,92,62,31,30.32,30.22,30.09,10,10,8,7,2,13,0.00,0,,73
2013-10-29,57,46,35,42,37,33,100,74,47,30.38,30.31,30.21,10,6,0,9,5,16,T,2,Fog,111
2013-10-30,64,57,50,61,54,43,100,89,78,30.18,30.08,29.95,10,4,1,15,7,25,0.15,8,Rain,165
2013-10-31,66,61,55,61,58,53,93,86,78,29.95,29.56,29.24,10,6,1,38,14,56,1.18,8,Rain,208